Regional Weather Roundup
Issued by NWS Cleveland, OH

Home | Current Version | Previous Version | Text Only | Print | Product List | Glossary Off
Versions: 1 2 3 4 5 6 7 8 9 10 11 12 13 14 15 16 17 18 19 20 21 22 23 24 25 26 27 28 29 30 31 32 33 34 35 36 37 38 39 40 41 42 43 44 45 46 47 48 49 50

000
ASUS41 KCLE 200510
RWRCLE
OHIO REGIONAL WEATHER ROUNDUP
NATIONAL WEATHER SERVICE CLEVELAND, OH
100 AM EDT SUN AUG 20 2017

NOTE: "FAIR" INDICATES FEW OR NO CLOUDS BELOW 12,000 FEET WITH NO
SIGNIFICANT WEATHER AND/OR OBSTRUCTIONS TO VISIBILITY.

OHZ001>008-015>018-024>027-034-035-043-044-200600-
   NORTHWEST OHIO

CITY           SKY/WX    TMP DP  RH WIND       PRES   REMARKS
DEFIANCE       CLEAR     62  60  93 CALM      30.02S
FINDLAY        CLEAR     63  58  83 CALM      30.02R
TOLEDO EXPRESS CLEAR     61  61 100 CALM      30.02R
TOLEDO EXEC    CLEAR     65  61  87 S3        30.03R
LIMA           CLEAR     60  59  96 S3        30.04R
$$

OHZ009>014-019>023-028>033-038-089-200600-
   NORTHEAST OHIO

CITY           SKY/WX    TMP DP  RH WIND       PRES   REMARKS
CLE-HOPKINS    CLEAR     66  62  87 CALM      30.05R
CLE-LAKEFRONT  CLEAR     69  60  73 S8        30.02R
CUY CO. ARPT   NOT AVBL
LORAIN-ELYRIA    N/A    N/A N/A N/A MISG      30.05R
ASHTABULA      CLEAR     59  59 100 CALM      30.05R
AKRON-CANTON   CLEAR     63  58  83 CALM      30.05R
WOOSTER        CLEAR     58  57  97 CALM      30.06R
MANSFIELD      CLEAR     63  61  93 S3        30.06R
YOUNGSTOWN     CLEAR     60  59  96 CALM      30.05R
$$

OHZ042-051>053-060>062-070>072-077>081-200600-
  SOUTHWEST OHIO

CITY           SKY/WX    TMP DP  RH WIND       PRES   REMARKS
CINC-COVINGTON MOCLDY    72  69  90 SW5       30.03R
CINC-LUNKEN    CLEAR     70  69  97 N3        30.03R
HAMILTON       CLEAR     67  67 100 CALM      30.03R
DAYTON         PTCLDY    69  59  70 E5        30.05S
WRIGHT-PAT AFB CLEAR     65  63  92 N6        30.03S
DAYTON GENERAL CLEAR     70  64  81 E6        30.03R
WILMINGTON     CLEAR     65  65 100 NE5       30.03S
$$

OHZ036-037-039>041-045>050-054>059-063>069-073>076-082>088-200600-
  CENTRAL AND SOUTHEAST OHIO

CITY           SKY/WX    TMP DP  RH WIND       PRES   REMARKS
COLUMBUS       CLEAR     67  66  97 N3        30.04R
OSU AIRPORT    CLEAR     63  62  97 N3        30.05R
BOLTON FIELD   CLEAR     64  63  97 CALM      30.05R
RICKENBACK AFB CLEAR     65  65  99 CALM      30.04R
NEWARK         FOG       61  60  97 CALM      30.04S VSB 1/2
MARION         CLEAR     61  57  87 CALM      30.05R
LANCASTER      FOG       63  63 100 CALM      30.05R VSB 1/2
ZANESVILLE     CLEAR     62  61  96 CALM      30.05R FOG
NEW PHILLY     NOT AVBL
$$



USA.gov is the U.S. government's official web portal to all federal, state and local government web resources and services.